Location: Unspecified
(54.1780°N, 0.0000°E)
Time: 13:11:25
(UTC+00:00)

S-56A Canister/Altair - Pass Details

Date: 25 June 2019
Orbit: 632 x 2500 km, 38.9° (Epoch: 22 July)

Event Time Altitude Azimuth Distance (km) Brightness Sun altitude
Rises 13:56:27 0° 208° (SSW) 5,599 12.5 52.6°
Reaches altitude 10° 14:02:02 10° 192° (SSW) 4,245 12.0 52.0°
Maximum altitude 14:08:20 17° 157° (SSE) 3,217 11.1 51.3°
Drops below altitude 10° 14:13:28 10° 120° (ESE) 3,341 10.8 50.7°
Sets 14:17:05 0° 101° (E) 3,993 10.9 50.3°
